Simultaneous Nadir Overpasses (SNOs) Predictions

Prediction of SNOs between FY3D and AQUA Satellite Orbit:

Table of predicted SNOs for the next 14.0 days since TLE Epoch: 1/6/2025
Index Date (FY3D) Time (FY3D) Lat,Lon (FY3D) SZA (FY3D ) Date (AQUA) Time (AQUA) Lat,Lon (AQUA) SZA (AQUA ) Distance(km) Time Diff (sec)
1 01/07/2025 22:54:06 79.61,-179.75 102.27 01/07/2025 22:54:35 79.61,-179.67 102.25 1.78 29
2 01/07/2025 23:44:41 -79.32, -9.86 78.15 01/07/2025 23:43:46 -79.32, -9.97 78.13 2.28 55
3 01/10/2025 09:15:46 -79.59,-154.98 78.10 01/10/2025 09:16:25 -79.60,-155.01 78.10 0.76 39
4 01/10/2025 10:06:26 79.43, 13.85 101.66 01/10/2025 10:05:40 79.42, 13.99 101.66 2.83 46
5 01/12/2025 19:37:28 79.62,-130.57 101.56 01/12/2025 19:38:15 79.62,-130.59 101.56 0.62 47
6 01/12/2025 20:28:06 -79.42, 38.57 78.74 01/12/2025 20:27:28 -79.41, 38.61 78.73 0.82 38
7 01/15/2025 05:59:08 -79.62,-105.90 78.87 01/15/2025 06:00:01 -79.62,-105.98 78.87 1.82 53
8 01/15/2025 06:49:48 79.45, 62.88 100.90 01/15/2025 06:49:16 79.45, 62.97 100.89 2.03 32
9 01/17/2025 16:20:50 79.67, -81.72 100.75 01/17/2025 16:21:47 79.67, -81.68 100.73 0.93 57
10 01/17/2025 17:11:28 -79.46, 87.50 79.57 01/17/2025 17:11:00 -79.46, 87.56 79.57 1.27 28
11 01/20/2025 02:42:29 -79.64, -56.86 79.80 01/20/2025 02:43:28 -79.64, -56.82 79.82 0.93 59



Historial Predications of SNOs between FY3D and AQUA
